"Pseudo-MPEC" for P21DeCV

Created 2023 Jan 27 17:22:22 UT using Find_Orb

Click here for an explanation of pseudo-MPECs

 
 Astrometry: 
     P21DeCV* C2023 01 24WuPkouDY7,Z+mh\^DBjL_eWAstrometry7-N8E83LhYu=#TTch`VF52
     P21DeCV  C2023 01 241vn/Iyredacted;j.?HyLPYevqR_1wVi+1RMclickKc^GWG@ZG0BF52
     P21DeCV  C2023 01 24f2Al=UW9L0ofuFBdhere+-=XXZqkLe0H+wjx:y/for-KsVko4YaAF52
     P21DeCV  C2023 01 24P?T0j4/4(NDP4utf5suvyoRjTXw;T(5.lYBHhVPqT[+P/K?]F\onF52
     P21DeCV  C2023 01 24g#_?r9Ga!explanation9ACbcSl4-'?77D1tEM0nu6\RO!KBfCoaF52
     P21DeCV  C2023 01 24@WKs$_[+Yrv#)J0Zq,KS8T.=w0*@%ka7p4oVoTiBQFK!I66@B;M4F52
     P21DeCV  C2023 01 25o[Rlk\gJ'(;x0.feQ.pw3KIa@EVGZL(2rMn9xOA9'8$5Xiff_y0r654
     P21DeCV  C2023 01 25ILmn(:N.C:'pbtH8p?.@/@/O,Hm+X@.^3WgM+upVAbQiG_t/%)Oh654
     P21DeCV  C2023 01 25X56@IF)-Y`N,E$WEZx.eAbf'\u,e$ux9e$44J=v]W$C(H=x0\trI654

Station data:
(654) Table Mountain Observatory, Wrightwood-PHMC  (N34.381820 W117.681590)
   US/California.  Observers P. Choi, N. Saini, C. Zhai, R. Trahan, M. Shao.
(F52) Pan-STARRS 2, Haleakala  (N20.707382 W156.255910)  US/Hawaii.
   Observers J. Bulger, T. Dukes, T. Lowe, A. Schultz, M. Willman. Measurers
   K. Chambers, S. Chastel, T. de Boer, L. Denneau, J. Fairlamb, H.
   Flewelling, M. Huber, C.-C. Lin, E. Magnier, Y. Ramanjooloo, R. Wainscoat,
   R. Weryk. 1.8-m Ritchey-Chrétien + CCD.

Orbital elements:  P21DeCV
   Perihelion 2023 Mar 2.67568 +/- 114 TT = 16:12:58 (JD 2460006.17568)
Epoch 2023 Jan 25.0 TT = JDT 2459969.5   Earth MOID: 0.7101      AutoNEOCP
M 344.86485337 +/- 36               (J2000 ecliptic)
n   0.41267529 +/- 0.082            Peri.   59.27320 +/- 70
a   1.78674978 +/- 0.237            Node    83.26759 +/- 7
e   0.0772640 +/- 0.167             Incl.   21.44876 +/- 4.8
P   2.39/872.34d           H 19.52  G  0.15   U 11.1  SR
q 1.64869824 +/- 0.218    Q 1.92480132 +/- 0.862
From 9 observations 2023 Jan. 24-25 (23.5 hr); mean residual 0".29
Residuals in arcseconds: 
230124 F52  .40-  .13+    230124 F52  .24-  .04-    230125 654  .28-  .02-    
230124 F52  .35-  .04+    230124 F52  .75+  .04-    230125 654  .09-  .04+    
230124 F52  .15-  .07-    230124 F52  .70+  .03-    230125 654  .06+  .00     

Ephemerides (geocentric):
Date (UTC) HH   RA             Dec           delta  r     elong  mag " sig PA
---- --------  ------------   ------------  ------ ------ -----  --- --------
2023 01 27 17  08 49 20.009   +52 47 02.10  .74448 1.6535 145.6 21.0 59.5  61
2023 01 27 18  08 49 16.268   +52 47 50.98  .74456 1.6535 145.6 21.0 61.3  61
2023 01 27 19  08 49 12.525   +52 48 39.77  .74464 1.6535 145.6 21.0 63.1  61
2023 01 27 20  08 49 08.779   +52 49 28.48  .74473 1.6535 145.6 21.0 64.9  61
2023 01 27 21  08 49 05.032   +52 50 17.10  .74481 1.6535 145.5 21.0 66.8  61
2023 01 27 22  08 49 01.283   +52 51 05.64  .74489 1.6535 145.5 21.0 68.6  61
2023 01 27 23  08 48 57.532   +52 51 54.10  .74498 1.6534 145.5 21.0 70.5  61
2023 01 28 00  08 48 53.779   +52 52 42.47  .74506 1.6534 145.5 21.0 72.4  61
2023 01 28 01  08 48 50.024   +52 53 30.76  .74515 1.6534 145.5 21.0 74.4  61
2023 01 28 02  08 48 46.267   +52 54 18.97  .74523 1.6534 145.4 21.0 76.4  61
2023 01 28 03  08 48 42.508   +52 55 07.09  .74532 1.6534 145.4 21.0 78.3  61
2023 01 28 04  08 48 38.748   +52 55 55.13  .74540 1.6534 145.4 21.0 80.3  61
2023 01 28 05  08 48 34.986   +52 56 43.08  .74549 1.6534 145.4 21.0 82.4  60
2023 01 28 06  08 48 31.222   +52 57 30.95  .74557 1.6534 145.3 21.0 84.4  60
2023 01 28 07  08 48 27.456   +52 58 18.73  .74566 1.6534 145.3 21.0 86.5  60
2023 01 28 08  08 48 23.688   +52 59 06.43  .74575 1.6533 145.3 21.0 88.6  60
2023 01 28 09  08 48 19.919   +52 59 54.05  .74583 1.6533 145.3 21.0 90.8  60
2023 01 28 10  08 48 16.147   +53 00 41.58  .74592 1.6533 145.3 21.0 92.9  60
2023 01 28 11  08 48 12.375   +53 01 29.03  .74601 1.6533 145.2 21.0 95.1  60
2023 01 28 12  08 48 08.600   +53 02 16.39  .74610 1.6533 145.2 21.0 97.3  60
2023 01 28 13  08 48 04.824   +53 03 03.67  .74618 1.6533 145.2 21.0 99.5  60
2023 01 28 14  08 48 01.046   +53 03 50.86  .74627 1.6533 145.2 21.0  102  60
2023 01 28 15  08 47 57.266   +53 04 37.97  .74636 1.6533 145.1 21.0  104  60
2023 01 28 16  08 47 53.485   +53 05 24.99  .74645 1.6532 145.1 21.0  106  60
2023 01 28 17  08 47 49.703   +53 06 11.93  .74654 1.6532 145.1 21.0  109  60
2023 01 28 18  08 47 45.918   +53 06 58.78  .74663 1.6532 145.1 21.0  111  60
2023 01 28 19  08 47 42.132   +53 07 45.55  .74672 1.6532 145.1 21.0  113  60
2023 01 28 20  08 47 38.345   +53 08 32.23  .74681 1.6532 145.0 21.0  116  60
2023 01 28 21  08 47 34.556   +53 09 18.83  .74690 1.6532 145.0 21.0  118  60
2023 01 28 22  08 47 30.765   +53 10 05.34  .74699 1.6532 145.0 21.0  121  60
2023 01 28 23  08 47 26.973   +53 10 51.77  .74708 1.6532 145.0 21.0  123  60
2023 01 29 00  08 47 23.180   +53 11 38.11  .74718 1.6532 144.9 21.0  125  60
2023 01 29 01  08 47 19.385   +53 12 24.37  .74727 1.6531 144.9 21.0  128  60
2023 01 29 02  08 47 15.588   +53 13 10.54  .74736 1.6531 144.9 21.0  131  60
2023 01 29 03  08 47 11.791   +53 13 56.63  .74745 1.6531 144.9 21.0  133  60
2023 01 29 04  08 47 07.991   +53 14 42.63  .74755 1.6531 144.8 21.0  136  60
2023 01 29 05  08 47 04.191   +53 15 28.54  .74764 1.6531 144.8 21.0  138  60
2023 01 29 06  08 47 00.389   +53 16 14.37  .74773 1.6531 144.8 21.0  141  60
2023 01 29 07  08 46 56.586   +53 17 00.12  .74783 1.6531 144.8 21.0  143  60
2023 01 29 08  08 46 52.781   +53 17 45.78  .74792 1.6531 144.8 21.0  146  60
2023 01 29 09  08 46 48.975   +53 18 31.35  .74802 1.6531 144.7 21.0  149  60
2023 01 29 10  08 46 45.168   +53 19 16.84  .74811 1.6530 144.7 21.0  151  60
2023 01 29 11  08 46 41.359   +53 20 02.24  .74821 1.6530 144.7 21.0  154  60
2023 01 29 12  08 46 37.549   +53 20 47.56  .74830 1.6530 144.7 21.0  157  60
2023 01 29 13  08 46 33.738   +53 21 32.79  .74840 1.6530 144.6 21.0  160  60
2023 01 29 14  08 46 29.926   +53 22 17.93  .74849 1.6530 144.6 21.0  163  60
2023 01 29 15  08 46 26.112   +53 23 02.99  .74859 1.6530 144.6 21.0  165  60
2023 01 29 16  08 46 22.298   +53 23 47.96  .74869 1.6530 144.6 21.0  168  60